Regional Weather Roundup
Issued by NWS State College, PA

Home | Current Version | Previous Version | Text Only | Print | Product List | Glossary On
Versions: 1 2 3 4 5 6 7 8 9 10 11 12 13 14 15 16 17 18 19 20 21 22 23 24 25 26 27 28 29 30 31 32 33 34 35 36 37 38 39 40 41 42 43 44 45 46 47 48 49 50
000
ASUS41 KCTP 271310
RWRCTP

REGIONAL WEATHER ROUNDUP
NATIONAL WEATHER SERVICE STATE COLLEGE PA
900 AM EDT WED JUL 27 2016

Note: "fair" indicates few or no clouds below 12,000 feet with no
significant weather and/or obstructions to visibility.

* = STATION THAT DOES NOT REPORT PRECIPITATION /E.G. RAIN...SNOW...ETC/
    THUNDER OR FOG.

PAZ002>004-007>009-013>016-020>023-029>032-271400-
WESTERN PENNSYLVANIA

CITY           SKY/WX    TMP DP  RH WIND       PRES   REMARKS
ERIE           SUNNY     74  62  66 S7        30.02S
MEADVILLE      SUNNY     70  57  63 SW5       30.06S
FRANKLIN*        N/A    N/A N/A N/A MISG        N/A
NEW CASTLE     FAIR      71  64  78 CALM      30.06S
BEAVER COUNTY  CLOUDY    73  59  60 CALM      30.06R
BUTLER*        MOSUNNY   72  63  73 NE3       30.09R
PITTSBURGH INT PTSUNNY   73  61  65 CALM      30.05R
PITTSBURGH     CLOUDY    74  63  68 CALM      30.04R
INDIANA*       PTSUNNY   70  63  78 CALM      30.09R
LATROBE        NOT AVBL
WASHINGTON CO* CLOUDY    72  64  78 CALM      30.06R
$$

PAZ004>006-010>012-017>019-024>028-033>037-041-042-045-046-049>053-271400-
CENTRAL PENNSYLVANIA

CITY           SKY/WX    TMP DP  RH WIND       PRES   REMARKS
BRADFORD       SUNNY     70  60  70 N3        30.09R
DUBOIS         CLOUDY    71  61  70 NE3       30.07R
CLEARFIELD     CLOUDY    67  60  78 CALM      30.07S
JOHNSTOWN      CLOUDY    70  60  70 SW6       30.08R
ALTOONA        CLOUDY    75  59  57 W3        30.06R
STATE COLLEGE  SUNNY     72  63  73 CALM      30.05R
WILLIAMSPORT   SUNNY     73  62  68 W8        30.01S
SELINSGROVE    MOSUNNY   75  68  78 CALM      30.01S
FT INDIANTOWN  SUNNY     80  62  53 VRB5      29.99S
CAPITAL CITY   SUNNY     82  62  50 E6        29.98F
HARRISBURG     MOSUNNY   81  65  58 CALM      29.98S
YORK           CLOUDY    80  65  59 NE8       29.99R
$$

PAZ038>040-043-044-047-048-054-055-060>062-067>071-271400-
EASTERN PENNSYLVANIA

CITY           SKY/WX    TMP DP  RH WIND       PRES   REMARKS
SCRANTON       SUNNY     72  62  71 CALM      30.02S
MOUNT POCONO   SUNNY     74  56  53 N5        30.05R
ALLENTOWN      SUNNY     77  64  64 CALM      29.99S
QUAKERTOWN*    SUNNY     79  64  61 CALM      30.00S
READING        SUNNY     79  63  57 N7        29.97F
LANCASTER      MOSUNNY   79  65  62 E8        29.98S
COATESVILLE    SUNNY     79  64  61 NE6       30.00S
POTTSTOWN      SUNNY     79  64  60 N6        29.99S
BLUE BELL      SUNNY     79  64  61 NE3       29.97R
DOYLESTOWN     SUNNY     77  64  64 CALM      29.98R
WILLOW GROVE   NOT AVBL
NORTH PHILA    SUNNY     82  66  58 NE6       29.98R
PHILADELPHIA   MOSUNNY   82  63  52 NE8G20    29.97R
$$




USA.gov is the U.S. government's official web portal to all federal, state and local government web resources and services.